カタログに戻る

STARLINK-35138

運用中通信VLEO
NORAD 65420·PAYLOAD·🇺🇸 United States

打ち上げ Aug 31, 2025 から Cape Canaveral Space Force Station

Loading…

次のパス (今後24時間)

TLE

最新Source: CelesTrak SupGP

元期: Sep 14, 2026, 22:24 UTC

1 65420C 25192S   26257.93381944  .00052425  00000+0  16860-2 0  2576
2 65420  53.1588  71.8127 0001209  77.9071 145.6861 15.31673036    15

AllMySatでSTARLINK-35138をリアルタイム追跡

Download on the App Store